Wind_Speed
15 15 15 15 15 15 15 15 16 16 17 17 17 18 18 18 19 19 19 19 20 20 20 20 20 20 21 21 22 22 22 23 23 24 24 25 25 26
19 19 19 19 19 19 19 19 20 20 21 21 21 21 21 22 22 22 23 23 23 23 23 24 24 24 24 24 25 25 25 26 26 27 27 27 28 28
22 22 22 22 23 23 23 23 23 23 24 24 25 25 25 25 26 26 27 27 27 27 27 28 28 28 28 28 28 29 29 29 29 29 30 30 30 30
25 26 26 26 27 27 27 27 27 27 28 28 28 29 29 30 30 30 31 31 31 32 31 31 31 32 32 32 32 33 33 33 33 32 33 33 33 33
29 29 30 30 31 31 31 31 31 32 32 32 32 33 33 34 34 35 35 35 35 35 35 36 36 36 36 36 36 36 36 36 36 36 36 36 36 36
32 33 33 34 34 35 35 35 36 36 36 36 36 37 37 38 38 39 39 39 39 39 39 39 40 40 40 40 39 39 40 40 40 40 40 40 39 39
35 36 37 37 38 39 39 40 40 40 40 41 40 40 41 42 43 43 42 42 42 42 43 43 44 43 43 43 43 43 44 44 44 43 43 43 43 43
37 38 39 40 41 42 43 43 44 44 44 45 45 45 45 45 46 47 47 47 46 45 47 46 47 46 46 46 47 47 47 47 47 46 46 46 46 46
40 41 42 44 44 45 46 46 47 47 48 48 49 49 49 49 50 50 51 51 50 49 50 49 49 49 49 49 50 50 50 50 50 50 49 49 49 49
41 43 44 45 46 46 47 49 50 50 51 52 52 52 53 53 53 54 54 54 53 52 54 53 51 52 52 53 53 54 54 54 54 54 53 53 52 52
44 45 46 47 47 48 50 51 51 52 53 54 55 55 56 56 56 56 56 56 55 55 56 57 57 57 57 56 57 58 58 58 58 58 58 57 56 56
46 47 48 48 49 50 51 52 53 54 55 56 56 56 57 57 58 59 59 59 59 59 60 61 62 63 62 60 61 62 63 63 63 63 62 62 61 60
47 48 49 50 52 52 53 53 54 55 55 56 57 58 60 60 61 63 64 65 65 66 66 68 68 68 69 67 66 67 68 68 68 68 68 67 66 66
49 49 50 51 52 53 54 55 57 58 58 59 60 61 63 64 65 66 68 69 70 71 72 73 74 74 74 73 72 72 72 72 73 72 72 72 71 71
51 52 52 53 55 56 57 59 60 61 62 63 64 65 66 67 68 69 70 71 72 73 75 76 77 77 77 77 76 75 75 74 73 73 73 73 73 73
54 55 56 56 58 59 61 62 63 64 65 65 66 67 68 68 69 70 71 71 71 71 72 73 74 75 74 74 74 73 74 74 73 73 73 73 73 73
56 57 58 59 60 62 63 64 64 65 65 66 67 67 67 68 68 69 69 69 69 67 66 66 67 67 67 67 67 67 68 69 69 69 69 70 70 71
58 58 59 60 61 61 62 62 63 64 64 65 65 65 65 65 65 64 64 63 63 62 61 60 60 60 59 59 60 60 60 61 62 62 63 64 63 63
59 60 60 61 61 61 60 60 60 60 60 60 60 60 60 59 58 57 57 56 55 54 53 53 52 53 53 52 52 54 54 53 54 55 56 57 57 57
59 58 58 58 58 57 56 56 55 55 55 54 54 53 52 51 50 49 48 47 47 46 45 45 46 47 47 47 45 46 48 48 48 48 48 49 50 51
55 55 54 54 53 52 51 50 50 49 48 47 46 45 44 43 42 41 40 40 40 39 39 39 40 41 41 40 39 38 39 41 42 41 41 41 41 42
50 49 48 47 45 44 44 43 43 42 41 40 40 39 38 37 36 35 34 34 34 33 33 34 35 36 36 36 34 33 33 33 34 33 33 34 34 34
43 42 41 40 39 38 37 37 36 36 36 35 35 34 33 32 31 30 30 30 30 29 29 29 30 31 31 30 30 28 27 27 27 27 27 28 28 28
Wind_Direction
263 265 267 270 271 272 274 276 277 278 278 279 278 277 276 275 275 274 274 274 274 274 273 273 272 271 271 271 271 271 270 270 269 269 269 269 269 269
265 267 268 270 272 273 273 274 276 277 277 279 278 277 275 275 274 273 273 273 273 272 272 272 271 271 271 271 271 271 271 270 269 269 269 269 269 269
267 268 269 270 271 272 272 272 273 275 276 276 276 276 275 274 273 272 272 272 272 272 271 271 271 271 271 271 270 270 270 270 270 270 270 270 269 269
268 269 270 271 271 272 272 272 272 272 273 274 274 274 274 274 273 272 272 271 271 272 271 271 271 271 270 270 270 269 269 269 269 269 269 269 269 268
270 271 272 273 273 273 273 273 272 272 272 272 273 273 273 274 273 272 272 272 272 272 272 271 271 270 270 270 270 269 269 269 268 268 268 268 268 268
271 272 272 273 273 274 274 274 273 272 272 272 272 272 273 273 273 272 272 272 272 272 272 271 271 270 270 270 270 269 268 268 268 268 268 268 268 267
271 273 273 273 274 274 274 274 274 273 272 272 272 272 273 273 273 273 272 271 271 272 271 271 271 270 270 269 269 269 269 269 268 268 267 267 267 267
273 275 275 274 274 274 275 275 275 275 274 274 274 274 274 274 273 273 273 272 271 271 271 271 271 271 270 270 269 269 269 269 269 269 268 268 267 267
274 274 273 274 274 275 274 275 275 275 275 275 274 274 274 275 274 274 274 273 273 272 271 270 271 271 271 270 270 270 270 270 270 270 269 268 268 267
274 275 276 276 275 274 274 275 275 276 276 276 276 275 276 276 275 275 274 273 273 273 273 272 271 271 271 271 271 271 271 271 270 270 270 269 268 268
275 276 276 276 276 275 275 275 275 276 276 276 277 278 277 277 277 276 276 275 274 273 273 273 272 271 270 270 271 271 271 271 270 270 270 269 269 268
276 276 276 275 275 275 276 275 276 276 277 277 278 278 277 277 277 276 276 276 275 274 274 273 273 272 270 270 270 270 270 270 270 269 269 268 268 267
278 277 276 276 276 276 276 276 277 277 276 277 277 277 277 278 278 277 277 277 276 276 275 274 273 273 272 270 269 269 270 270 269 269 268 267 266 266
279 278 278 278 278 278 277 277 277 277 277 277 277 277 277 277 277 277 277 277 277 277 276 276 275 274 273 272 271 270 270 269 269 268 267 267 266 265
281 280 280 280 280 280 279 279 279 278 278 278 278 278 278 278 278 278 278 278 278 278 277 277 276 276 275 274 272 271 271 270 269 268 267 265 265 264
281 280 281 281 281 281 281 280 280 279 280 280 280 280 280 279 279 279 280 279 279 279 279 279 278 277 277 276 275 273 272 271 269 268 267 265 264 263
283 283 283 283 283 283 283 282 282 282 282 282 281 282 282 281 281 281 281 281 280 279 279 279 279 279 278 278 276 275 273 272 271 270 268 266 264 262
285 285 285 285 285 285 285 284 284 284 284 284 284 284 284 283 283 282 282 282 281 281 280 278 278 278 279 279 280 279 277 275 273 271 269 267 264 262
287 287 287 287 286 286 286 286 286 286 286 287 287 286 286 285 284 283 283 283 282 282 281 280 279 280 279 279 279 280 279 277 275 272 270 267 264 260
289 289 289 289 288 288 288 288 288 288 288 288 288 288 287 287 285 285 284 284 283 283 282 282 282 283 283 283 282 280 280 278 276 274 270 268 265 262
292 292 291 290 290 290 290 290 290 290 290 290 290 289 289 288 287 287 286 286 286 285 284 283 284 285 286 286 286 283 280 280 279 275 271 268 266 262
295 295 294 294 294 293 293 293 293 292 292 292 292 291 291 291 290 289 288 288 288 288 287 286 286 286 287 288 289 286 282 282 281 278 273 269 267 264
297 297 296 296 296 296 296 297 296 295 294 294 294 293 293 293 292 291 291 291 291 289 289 289 289 289 289 290 290 288 286 285 283 280 275 271 268 265
Height
5869 5869 5869 5870 5870 5870 5870 5870 5870 5869 5869 5868 5867 5867 5866 5865 5865 5864 5864 5863 5862 5862 5862 5861 5861 5861 5860 5860 5860 5859 5859 5859 5859 5859 5859 5859 5859 5859
5865 5865 5865 5865 5866 5865 5865 5865 5865 5865 5864 5863 5862 5862 5861 5860 5859 5859 5858 5857 5857 5856 5856 5855 5855 5854 5854 5854 5853 5853 5853 5852 5852 5852 5852 5852 5852 5852
5860 5860 5860 5860 5860 5860 5860 5860 5859 5859 5858 5857 5857 5856 5855 5854 5853 5852 5851 5850 5850 5849 5849 5848 5848 5847 5847 5846 5846 5846 5845 5845 5845 5845 5844 5845 5844 5845
5854 5854 5854 5854 5854 5853 5853 5853 5852 5852 5851 5850 5849 5848 5847 5846 5846 5845 5844 5843 5842 5842 5841 5840 5839 5839 5838 5838 5837 5837 5837 5836 5836 5836 5836 5836 5836 5836
5847 5847 5846 5846 5846 5846 5845 5845 5844 5843 5843 5842 5841 5840 5839 5838 5837 5836 5835 5834 5834 5833 5832 5831 5830 5830 5829 5828 5828 5827 5827 5827 5827 5827 5827 5827 5827 5827
5839 5838 5838 5837 5837 5837 5836 5835 5834 5834 5833 5832 5832 5830 5829 5828 5827 5826 5825 5824 5824 5823 5822 5821 5820 5819 5819 5818 5818 5817 5816 5816 5816 5816 5816 5816 5817 5817
5830 5829 5828 5828 5827 5826 5825 5824 5823 5822 5821 5821 5820 5820 5819 5817 5815 5814 5814 5813 5813 5812 5811 5810 5808 5808 5808 5807 5806 5805 5804 5804 5804 5804 5805 5805 5805 5805
5820 5819 5818 5817 5816 5815 5814 5813 5811 5810 5809 5808 5807 5807 5806 5804 5803 5802 5801 5800 5801 5801 5797 5797 5796 5795 5795 5794 5793 5792 5792 5791 5791 5792 5792 5792 5792 5793
5810 5809 5807 5806 5805 5803 5802 5800 5799 5797 5796 5795 5794 5793 5792 5791 5789 5788 5787 5786 5786 5786 5784 5784 5783 5781 5781 5779 5779 5778 5778 5777 5777 5777 5778 5778 5778 5779
5799 5797 5796 5794 5792 5791 5789 5787 5786 5784 5782 5781 5780 5778 5777 5775 5774 5773 5772 5771 5771 5770 5767 5767 5768 5767 5766 5765 5764 5763 5763 5762 5762 5762 5762 5763 5763 5764
5787 5786 5784 5782 5780 5778 5776 5774 5772 5770 5768 5766 5764 5763 5761 5759 5757 5756 5755 5754 5754 5754 5751 5750 5750 5750 5750 5750 5748 5747 5746 5745 5745 5745 5745 5745 5746 5746
5774 5772 5770 5768 5766 5764 5762 5760 5758 5756 5754 5751 5749 5747 5745 5743 5740 5738 5737 5736 5735 5736 5735 5731 5731 5729 5731 5733 5731 5729 5727 5727 5726 5726 5726 5727 5727 5727
5761 5759 5756 5754 5752 5749 5747 5745 5743 5741 5739 5736 5734 5731 5728 5726 5723 5720 5718 5716 5715 5715 5713 5710 5710 5708 5708 5711 5712 5710 5707 5706 5705 5706 5706 5706 5707 5707
5748 5745 5742 5740 5737 5734 5731 5729 5726 5724 5722 5719 5717 5714 5711 5708 5705 5702 5699 5696 5694 5692 5690 5687 5686 5685 5684 5686 5688 5687 5685 5683 5682 5682 5683 5683 5684 5685
5734 5731 5728 5724 5721 5718 5715 5712 5709 5706 5703 5700 5697 5694 5691 5688 5685 5682 5678 5675 5673 5669 5665 5662 5660 5659 5658 5659 5660 5661 5660 5659 5657 5656 5657 5658 5660 5661
5718 5715 5711 5708 5704 5700 5697 5693 5689 5686 5683 5680 5677 5673 5670 5666 5663 5659 5656 5653 5651 5648 5642 5637 5634 5633 5633 5633 5633 5633 5632 5632 5632 5630 5630 5632 5634 5636
5702 5698 5694 5690 5686 5681 5677 5673 5669 5666 5662 5659 5655 5652 5648 5645 5641 5637 5633 5630 5628 5626 5622 5617 5612 5610 5609 5609 5608 5608 5606 5606 5605 5604 5603 5605 5609 5611
5684 5680 5675 5671 5667 5663 5659 5654 5650 5645 5642 5638 5634 5630 5626 5623 5619 5615 5611 5608 5606 5603 5601 5597 5593 5591 5590 5588 5586 5584 5583 5582 5582 5580 5579 5580 5585 5588
5667 5662 5657 5653 5648 5644 5640 5636 5631 5627 5622 5618 5614 5610 5607 5603 5599 5596 5592 5589 5586 5584 5581 5578 5575 5572 5572 5572 5571 5565 5562 5562 5560 5559 5559 5559 5563 5567
5648 5644 5639 5635 5630 5626 5622 5618 5614 5609 5605 5601 5597 5593 5589 5585 5582 5579 5576 5573 5570 5568 5565 5562 5559 5556 5555 5554 5554 5552 5546 5543 5542 5541 5541 5541 5543 5546
5631 5626 5622 5617 5613 5609 5605 5601 5597 5594 5590 5586 5582 5578 5574 5570 5567 5564 5561 5559 5556 5554 5551 5549 5546 5543 5541 5539 5539 5538 5533 5529 5527 5526 5526 5526 5527 5529
5615 5611 5606 5602 5598 5594 5591 5587 5583 5579 5576 5572 5568 5565 5561 5558 5555 5552 5550 5547 5545 5542 5540 5538 5535 5532 5530 5528 5526 5524 5522 5519 5516 5514 5513 5514 5514 5516
5602 5598 5594 5590 5586 5582 5578 5575 5571 5567 5564 5560 5557 5553 5550 5547 5544 5542 5539 5537 5535 5532 5530 5528 5525 5523 5520 5518 5516 5514 5512 5509 5507 5506 5505 5504 5505 5506